Location: 22
(39.7117°N, 89.5929°W)
Time: 19:11:34
(UTC-05:00)

Vanguard 3 - Pass Details

Date: 30 January 2023
Orbit: 508 x 3249 km, 33.4° (Epoch: 30 March)

Event Time Altitude Azimuth Distance (km) Brightness Sun altitude
Rises 04:01:13 0° 277° (W) 7,185 - -36.1°
Reaches altitude 10° 04:09:24 10° 259° (W) 6,168 - -34.5°
Maximum altitude 04:18:16 15° 231° (SW) 5,484 - -32.8°
Exits shadow 04:23:07 13° 214° (SW) 5,396 11.0 -31.9°
Drops below altitude 10° 04:26:20 10° 203° (SSW) 5,474 11.1 -31.3°
Sets 04:32:54 0° 182° (S) 5,967 11.5 -30.0°
